GW3217 Weather Reports


Display with metric or nautical units.
time (UTC)temp
F
wind
direction
speed
MPH
gust
MPH
rain 1hr
in
rain 24hr
in
rain mn
in
humidity
%
barometer
mb
20260906024456 62 342 0.0 0.0 0.00 0.00 0.00 92 1015.5
20260906023956 62 327 0.0 0.0 0.00 0.00 0.00 92 1015.7
20260906023453 63 335 0.0 0.0 0.00 0.00 0.00 91 1015.8
20260906022952 63 330 0.0 0.0 0.00 0.00 0.00 91 1015.8
20260906022443 63 313 1.0 1.0 0.00 0.00 0.00 91 1015.6
20260906021937 62 16 1.0 1.0 0.00 0.00 0.00 91 1015.6
20260906021432 62 334 0.0 0.0 0.00 0.00 0.00 91 1015.5
20260906020932 62 319 0.0 0.0 0.00 0.00 0.00 91 1015.8
20260906020426 63 319 0.0 0.0 0.00 0.00 0.00 91 1015.5
20260906015921 63 324 0.0 0.0 0.00 0.00 0.00 90 1015.7
20260906015420 64 330 0.0 0.0 0.00 0.00 0.00 90 1015.4
20260906014915 64 303 0.0 0.0 0.00 0.00 0.00 89 1015.5
20260906014414 64 325 0.0 0.0 0.00 0.00 0.00 88 1015.7
20260906013911 64 320 0.0 0.0 0.00 0.00 0.00 89 1015.6
20260906013406 64 325 0.0 0.0 0.00 0.00 0.00 89 1015.5
20260906012902 64 300 0.0 1.0 0.00 0.00 0.00 87 1015.7
20260906012356 64 344 0.0 1.0 0.00 0.00 0.00 88 1015.4
20260906011855 64 322 0.0 0.0 0.00 0.00 0.00 87 1015.4
20260906011350 64 320 0.0 0.0 0.00 0.00 0.00 87 1015.3
20260906010846 64 3 0.0 0.0 0.00 0.00 0.00 87 1015.4
20260906010342 64 342 0.0 0.0 0.00 0.00 0.00 86 1015.4
20260906005838 65 285 0.0 0.0 0.00 0.00 0.00 86 1015.2
20260906005337 65 332 0.0 0.0 0.00 0.00 0.00 85 1015.1
20260906004836 65 327 0.0 0.0 0.00 0.00 0.00 85 1015.0
20260906004336 65 332 0.0 1.0 0.00 0.00 0.00 85 1015.0
20260906003831 66 316 0.0 0.0 0.00 0.00 0.00 84 1014.9
20260906003326 66 301 0.0 0.0 0.00 0.00 0.00 83 1014.9
20260906002822 66 332 0.0 1.0 0.00 0.00 0.00 83 1015.0
20260906002321 66 321 0.0 0.0 0.00 0.00 0.00 83 1015.1
20260906001817 66 353 0.0 0.0 0.00 0.00 0.00 83 1015.1
20260906001312 66 312 0.0 0.0 0.00 0.00 0.00 83 1014.8
20260906000808 66 325 0.0 0.0 0.00 0.00 0.00 83 1015.0
20260906000303 66 314 0.0 0.0 0.00 0.00 0.00 83 1015.0
20260905235757 66 316 0.0 0.0 0.00 0.00 0.00 83 1014.8
20260905235257 67 314 0.0 0.0 0.00 0.00 0.00 82 1014.6
20260905234752 67 287 2.0 2.0 0.00 0.00 0.00 81 1014.6
20260905234247 67 320 0.0 0.0 0.00 0.00 0.00 81 1014.8
20260905233742 67 340 0.0 1.0 0.00 0.00 0.00 82 1014.9
20260905233241 67 317 0.0 0.0 0.00 0.00 0.00 81 1014.2
20260905232736 67 315 0.0 0.0 0.00 0.00 0.00 81 1014.6
20260905232232 67 330 0.0 0.0 0.00 0.00 0.00 80 1014.5
20260905231728 67 321 0.0 0.0 0.00 0.00 0.00 79 1014.5
20260905231223 68 301 1.0 2.0 0.00 0.00 0.00 78 1014.5
20260905230719 68 286 0.0 0.0 0.00 0.00 0.00 79 1014.5
20260905230216 69 320 0.0 0.0 0.00 0.00 0.00 77 1014.3
20260905225711 69 336 0.0 1.0 0.00 0.00 0.00 76 1014.3
20260905225206 69 326 0.0 0.0 0.00 0.00 0.00 76 1014.3
20260905224705 69 330 0.0 1.0 0.00 0.00 0.00 75 1014.2
20260905224200 70 341 0.0 1.0 0.00 0.00 0.00 75 1014.1
20260905223656 70 345 1.0 2.0 0.00 0.00 0.00 72 1014.2
20260905223153 70 329 0.0 1.0 0.00 0.00 0.00 72 1014.2
20260905222648 71 307 1.0 1.0 0.00 0.00 0.00 72 1014.3
20260905222143 71 330 0.0 0.0 0.00 0.00 0.00 72 1014.0
20260905221638 71 320 0.0 0.0 0.00 0.00 0.00 72 1014.1
20260905221135 71 335 0.0 0.0 0.00 0.00 0.00 68 1013.9
20260905220631 71 338 0.0 1.0 0.00 0.00 0.00 68 1014.3
20260905220127 71 311 1.0 2.0 0.00 0.00 0.00 67 1014.1
20260905215626 72 328 1.0 2.0 0.00 0.00 0.00 68 1013.9
20260905215122 72 0 0.0 0.0 0.00 0.00 0.00 71 1013.9
20260905214618 72 324 0.0 0.0 0.00 0.00 0.00 72 1013.7
20260905214118 73 340 2.0 2.0 0.00 0.00 0.00 71 1013.8
20260905213613 72 315 0.0 1.0 0.00 0.00 0.00 71 1013.7
20260905213108 72 304 0.0 0.0 0.00 0.00 0.00 70 1013.8
20260905212603 72 317 1.0 1.0 0.00 0.00 0.00 74 1013.6
20260905212102 72 303 1.0 1.0 0.00 0.00 0.00 71 1013.7
20260905211558 71 340 0.0 0.0 0.00 0.00 0.00 71 1013.8
20260905211053 72 357 2.0 3.0 0.00 0.00 0.00 68 1013.5
20260905210549 73 24 3.0 4.0 0.00 0.00 0.00 66 1013.5
20260905210044 73 326 1.0 1.0 0.00 0.00 0.00 68 1013.6
20260905205543 73 314 1.0 2.0 0.00 0.00 0.00 71 1013.6
20260905205042 73 302 1.0 2.0 0.00 0.00 0.00 72 1013.3
20260905204537 72 350 0.0 1.0 0.00 0.00 0.00 71 1013.0
20260905204033 72 303 1.0 1.0 0.00 0.00 0.00 71 1013.3
20260905203532 73 321 1.0 1.0 0.00 0.00 0.00 70 1013.4
20260905203028 74 316 0.0 0.0 0.00 0.00 0.00 68 1013.3
20260905202523 75 294 0.0 0.0 0.00 0.00 0.00 66 1013.3
20260905202018 75 302 0.0 0.0 0.00 0.00 0.00 68 1013.4
20260905201514 75 313 0.0 1.0 0.00 0.00 0.00 66 1013.5
20260905201014 74 317 0.0 0.0 0.00 0.00 0.00 68 1013.5
20260905200509 76 313 1.0 2.0 0.00 0.00 0.00 68 1013.3
20260905200008 76 302 1.0 1.0 0.00 0.00 0.00 63 1013.1
20260905195503 77 302 2.0 2.0 0.00 0.00 0.00 63 1013.1
20260905194958 77 316 1.0 1.0 0.00 0.00 0.00 67 1013.1
20260905194457 76 312 0.0 1.0 0.00 0.00 0.00 66 1013.1
20260905193952 76 261 2.0 3.0 0.00 0.00 0.00 64 1013.2
20260905193447 75 307 2.0 2.0 0.00 0.00 0.00 66 1013.3
20260905192942 75 303 1.0 2.0 0.00 0.00 0.00 66 1013.2
20260905192437 75 274 1.0 1.0 0.00 0.00 0.00 65 1013.4
20260905191932 75 319 1.0 2.0 0.00 0.00 0.00 66 1013.1
20260905191431 75 315 0.0 1.0 0.00 0.00 0.00 66 1013.5
20260905190925 75 4 4.0 6.0 0.00 0.00 0.00 64 1013.2
20260905190423 75 343 1.0 2.0 0.00 0.00 0.00 66 1013.3
20260905185922 76 306 1.0 1.0 0.00 0.00 0.00 65 1013.6
20260905185418 75 300 1.0 2.0 0.00 0.00 0.00 68 1013.5
20260905184916 76 311 0.0 2.0 0.00 0.00 0.00 65 1013.5
20260905184411 75 358 1.0 1.0 0.00 0.00 0.00 67 1013.5
20260905183910 75 297 0.0 1.0 0.00 0.00 0.00 67 1013.6
20260905183405 75 336 2.0 2.0 0.00 0.00 0.00 65 1013.7
20260905182859 75 309 2.0 2.0 0.00 0.00 0.00 65 1013.6
20260905182353 74 320 2.0 2.0 0.00 0.00 0.00 69 1013.4
20260905181849 74 291 2.0 2.0 0.00 0.00 0.00 69 1013.6
20260905181349 74 282 1.0 2.0 0.00 0.00 0.00 68 1013.6
20260905180847 74 322 2.0 2.0 0.00 0.00 0.00 69 1013.8
20260905180342 73 316 1.0 1.0 0.00 0.00 0.00 72 1013.8
20260905175838 73 291 2.0 2.0 0.00 0.00 0.00 72 1013.8
20260905175338 73 100 3.0 4.0 0.00 0.00 0.00 72 1013.9
20260905174833 74 289 1.0 3.0 0.00 0.00 0.00 71 1013.7
20260905174329 73 241 1.0 2.0 0.00 0.00 0.00 70 1013.8
20260905173824 73 320 1.0 2.0 0.00 0.00 0.00 70 1013.9
20260905173321 74 288 2.0 3.0 0.00 0.00 0.00 70 1013.9
20260905172821 73 315 1.0 2.0 0.00 0.00 0.00 69 1013.9
20260905172318 73 322 1.0 2.0 0.00 0.00 0.00 70 1013.9
20260905171815 72 134 2.0 2.0 0.00 0.00 0.00 72 1014.1
20260905171311 73 287 2.0 2.0 0.00 0.00 0.00 68 1014.0
20260905170808 73 0 1.0 1.0 0.00 0.00 0.00 69 1013.9
20260905170303 73 340 1.0 1.0 0.00 0.00 0.00 72 1014.0
20260905165801 73 315 0.0 0.0 0.00 0.00 0.00 72 1014.2
20260905165257 72 30 1.0 2.0 0.00 0.00 0.00 74 1014.2
20260905164751 72 285 1.0 2.0 0.00 0.00 0.00 72 1014.2
20260905164247 72 312 0.0 0.0 0.00 0.00 0.00 75 1014.0
20260905163742 72 309 2.0 3.0 0.00 0.00 0.00 72 1013.9
20260905163238 73 310 0.0 0.0 0.00 0.00 0.00 72 1013.9
20260905162734 71 219 1.0 2.0 0.00 0.00 0.00 72 1014.2
20260905162234 70 316 1.0 1.0 0.00 0.00 0.00 75 1014.0
20260905161728 71 259 2.0 2.0 0.00 0.00 0.00 74 1014.2
20260905161226 71 288 1.0 2.0 0.00 0.00 0.00 76 1014.0
20260905160726 71 307 1.0 1.0 0.00 0.00 0.00 76 1013.8
20260905160225 71 286 2.0 3.0 0.00 0.00 0.00 75 1013.9
20260905155719 72 313 1.0 1.0 0.00 0.00 0.00 75 1013.9
20260905155213 71 311 1.0 1.0 0.00 0.00 0.00 75 1013.9
20260905154707 71 295 1.0 1.0 0.00 0.00 0.00 77 1013.8
20260905154203 70 309 3.0 6.0 0.00 0.00 0.00 76 1013.9
20260905153659 70 289 2.0 2.0 0.00 0.00 0.00 77 1013.8
20260905153154 70 322 0.0 0.0 0.00 0.00 0.00 78 1013.8
20260905152648 71 290 2.0 2.0 0.00 0.00 0.00 76 1013.9
20260905152143 71 314 1.0 1.0 0.00 0.00 0.00 78 1014.0
20260905151633 70 307 1.0 1.0 0.00 0.00 0.00 78 1014.1
20260905151128 70 323 1.0 2.0 0.00 0.00 0.00 79 1014.0
20260905150624 70 302 1.0 1.0 0.00 0.00 0.00 79 1014.0
20260905150122 69 305 1.0 1.0 0.00 0.00 0.00 79 1014.0
20260905145621 69 298 1.0 2.0 0.00 0.00 0.00 80 1013.8
20260905145119 71 310 1.0 1.0 0.00 0.00 0.00 78 1013.8
20260905144620 70 298 1.0 2.0 0.00 0.00 0.00 80 1014.2
20260905144120 70 307 0.0 0.0 0.00 0.00 0.00 80 1014.0
20260905143620 70 309 2.0 2.0 0.00 0.00 0.00 80 1014.2
20260905143114 69 353 0.0 1.0 0.00 0.00 0.00 81 1013.8
20260905142614 69 297 2.0 2.0 0.00 0.00 0.00 81 1013.8
20260905142113 69 320 1.0 1.0 0.00 0.00 0.00 83 1013.9
20260905141613 69 341 0.0 1.0 0.00 0.00 0.00 82 1013.9
20260905141109 68 307 0.0 0.0 0.00 0.00 0.00 83 1014.0
20260905140605 68 311 2.0 2.0 0.00 0.00 0.00 83 1013.9
20260905140103 68 343 2.0 2.0 0.00 0.00 0.00 83 1014.2
20260905135559 68 81 4.0 6.0 0.00 0.00 0.00 83 1014.0
20260905135054 68 298 2.0 2.0 0.00 0.00 0.00 83 1014.0
20260905134549 68 305 0.0 0.0 0.00 0.00 0.00 82 1014.0
20260905134047 68 318 1.0 1.0 0.00 0.00 0.00 83 1014.1
20260905133543 68 326 2.0 3.0 0.00 0.00 0.00 83 1014.0
20260905133043 68 340 4.0 7.0 0.00 0.00 0.00 83 1014.1
20260905132543 68 197 3.0 3.0 0.00 0.00 0.00 84 1014.2
20260905132037 68 348 1.0 2.0 0.00 0.00 0.00 85 1014.2
20260905131533 68 108 1.0 2.0 0.00 0.00 0.00 85 1014.4
20260905131028 67 305 1.0 1.0 0.00 0.00 0.00 86 1014.3
20260905130527 67 319 0.0 0.0 0.00 0.00 0.00 85 1014.3
20260905130023 66 323 1.0 1.0 0.00 0.00 0.00 87 1014.3
20260905125522 66 314 1.0 1.0 0.00 0.00 0.00 87 1014.2
20260905125018 66 319 0.0 0.0 0.00 0.00 0.00 89 1014.5
20260905124514 65 285 0.0 0.0 0.00 0.00 0.00 90 1014.4
20260905124010 65 317 1.0 1.0 0.00 0.00 0.00 90 1014.5
20260905123505 64 147 2.0 3.0 0.00 0.00 0.00 91 1014.3
20260905123001 64 307 1.0 1.0 0.00 0.00 0.00 92 1014.1
20260905122455 63 298 1.0 1.0 0.00 0.00 0.00 92 1014.5
20260905121950 63 285 0.0 1.0 0.00 0.00 0.00 93 1014.4
20260905121446 62 312 0.0 0.0 0.00 0.00 0.00 95 1014.3
20260905120944 61 317 0.0 0.0 0.00 0.00 0.00 96 1014.2
20260905120439 61 314 0.0 0.0 0.00 0.00 0.00 96 1014.2
20260905115934 61 336 0.0 0.0 0.00 0.00 0.00 96 1014.2
20260905115433 61 330 0.0 0.0 0.00 0.00 0.00 97 1014.2
20260905114923 60 324 0.0 0.0 0.00 0.00 0.00 97 1014.0
20260905114422 60 329 0.0 0.0 0.00 0.00 0.00 96 1014.1
20260905113916 60 338 0.0 0.0 0.00 0.00 0.00 96 1013.8
20260905113411 60 330 0.0 0.0 0.00 0.00 0.00 95 1013.8
20260905112907 60 326 0.0 0.0 0.00 0.00 0.00 95 1013.9
20260905112402 60 296 0.0 0.0 0.00 0.00 0.00 96 1013.7
20260905111856 60 351 0.0 0.0 0.00 0.00 0.00 96 1013.9
20260905111350 59 331 0.0 0.0 0.00 0.00 0.00 96 1013.6
20260905110849 59 337 0.0 0.0 0.00 0.00 0.00 96 1013.7
20260905110344 59 326 0.0 0.0 0.00 0.00 0.00 96 1013.7
20260905105839 59 329 0.0 0.0 0.00 0.00 0.00 97 1013.6
20260905105338 59 332 0.0 0.0 0.00 0.00 0.00 97 1013.4
20260905104833 59 335 0.0 0.0 0.00 0.00 0.00 98 1013.4
20260905104330 59 332 0.0 0.0 0.00 0.00 0.00 97 1013.3
20260905103829 59 338 0.0 0.0 0.00 0.00 0.00 97 1013.2
20260905103325 59 334 0.0 0.0 0.00 0.00 0.00 97 1013.0
20260905102820 59 330 0.0 0.0 0.00 0.00 0.00 97 1013.4
20260905102316 59 299 0.0 0.0 0.00 0.00 0.00 96 1013.2
20260905101811 59 319 0.0 0.0 0.00 0.00 0.00 96 1013.3
20260905101309 59 331 0.0 0.0 0.00 0.00 0.00 97 1013.0
20260905100803 59 337 0.0 0.0 0.00 0.00 0.00 97 1013.2
20260905100259 59 329 0.0 0.0 0.00 0.00 0.00 97 1013.2
20260905095758 59 304 0.0 0.0 0.00 0.00 0.00 97 1013.1
20260905095253 59 312 0.0 0.0 0.00 0.00 0.00 97 1013.1
20260905094748 59 292 0.0 0.0 0.00 0.00 0.00 96 1013.2
20260905094243 59 305 0.0 0.0 0.00 0.00 0.00 96 1013.0
20260905093742 59 310 0.0 0.0 0.00 0.00 0.00 96 1013.1
20260905093238 59 311 0.0 0.0 0.00 0.00 0.00 95 1013.2
20260905092733 59 303 0.0 0.0 0.00 0.00 0.00 95 1013.3
20260905092229 59 357 1.0 1.0 0.00 0.00 0.00 96 1012.8
20260905091728 59 316 1.0 1.0 0.00 0.00 0.00 96 1012.9
20260905091224 59 315 0.0 0.0 0.00 0.00 0.00 95 1013.1
20260905090723 60 319 0.0 0.0 0.00 0.00 0.00 95 1012.9
20260905090218 60 332 0.0 0.0 0.00 0.00 0.00 94 1013.0
20260905085717 60 340 0.0 0.0 0.00 0.00 0.00 94 1012.9
20260905085212 60 326 0.0 0.0 0.00 0.00 0.00 94 1013.1
20260905084706 60 329 0.0 0.0 0.00 0.00 0.00 95 1013.2
20260905084206 60 339 0.0 0.0 0.00 0.00 0.00 95 1013.2
20260905083701 60 319 0.0 0.0 0.00 0.00 0.00 94 1013.1
20260905083157 60 328 0.0 0.0 0.00 0.00 0.00 94 1013.2
20260905082653 60 330 0.0 0.0 0.00 0.00 0.00 94 1013.3
20260905082149 60 333 0.0 0.0 0.00 0.00 0.00 94 1013.0
20260905081648 60 316 0.0 0.0 0.00 0.00 0.00 93 1013.2
20260905081144 60 336 0.0 0.0 0.00 0.00 0.00 93 1012.8
20260905080638 60 311 0.0 0.0 0.00 0.00 0.00 93 1013.1
20260905080133 60 311 0.0 0.0 0.00 0.00 0.00 94 1013.0
20260905075632 60 331 0.0 0.0 0.00 0.00 0.00 93 1013.1
20260905075131 60 328 0.0 0.0 0.00 0.00 0.00 93 1013.1
20260905074630 60 344 0.0 1.0 0.00 0.00 0.00 93 1012.9
20260905074126 60 320 0.0 0.0 0.00 0.00 0.00 93 1013.2
20260905073622 60 315 0.0 0.0 0.00 0.00 0.00 93 1013.1
20260905073118 60 310 0.0 1.0 0.00 0.00 0.00 94 1013.2
20260905072616 60 315 0.0 0.0 0.00 0.00 0.00 95 1013.2
20260905072112 60 318 0.0 0.0 0.00 0.00 0.00 94 1013.1
20260905071609 60 329 0.0 0.0 0.00 0.00 0.00 95 1013.3
20260905071109 60 322 0.0 0.0 0.00 0.00 0.00 94 1013.1
20260905070604 60 330 0.0 0.0 0.00 0.00 0.00 93 1013.2
20260905070100 61 343 0.0 0.0 0.00 0.00 0.00 93 1013.1
20260905065557 61 315 0.0 0.0 0.00 0.00 0.00 92 1013.4
20260905065053 61 335 0.0 0.0 0.00 0.00 0.00 91 1013.4
20260905064553 61 321 0.0 0.0 0.00 0.00 0.00 91 1013.5
20260905064048 61 319 0.0 0.0 0.00 0.00 0.00 92 1013.4
20260905063547 61 304 0.0 0.0 0.00 0.00 0.00 92 1013.4
20260905063043 62 320 0.0 0.0 0.00 0.00 0.00 91 1013.4
20260905062538 62 324 0.0 0.0 0.00 0.00 0.00 89 1013.8
20260905062032 62 280 0.0 0.0 0.00 0.00 0.00 90 1013.6
20260905061528 62 316 0.0 0.0 0.00 0.00 0.00 91 1013.6
20260905061026 62 294 1.0 1.0 0.00 0.00 0.00 89 1013.7
20260905060523 62 314 0.0 1.0 0.00 0.00 0.00 90 1013.6
20260905060018 63 314 0.0 1.0 0.00 0.00 0.00 88 1013.6
20260905055517 63 319 0.0 0.0 0.00 0.00 0.00 88 1013.5
20260905055012 63 309 0.0 0.0 0.00 0.00 0.00 87 1013.9
20260905054508 63 323 0.0 0.0 0.00 0.00 0.00 87 1013.9
20260905054002 63 340 0.0 0.0 0.00 0.00 0.00 89 1014.0
20260905053457 64 328 1.0 1.0 0.00 0.00 0.00 86 1014.1
20260905052953 64 313 0.0 0.0 0.00 0.00 0.00 87 1014.1
20260905052452 63 322 0.0 0.0 0.00 0.00 0.00 87 1014.2
20260905051952 63 328 0.0 0.0 0.00 0.00 0.00 88 1014.3
20260905051447 64 319 0.0 0.0 0.00 0.00 0.00 87 1014.1
20260905050945 64 324 0.0 0.0 0.00 0.00 0.00 87 1014.2
20260905050440 64 321 0.0 0.0 0.00 0.00 0.00 88 1014.2
20260905045936 64 331 0.0 0.0 0.00 0.00 0.00 89 1014.4
20260905045425 64 312 0.0 0.0 0.00 0.00 0.00 88 1014.1
20260905044921 64 327 0.0 0.0 0.00 0.00 0.00 88 1014.3
20260905044416 64 332 0.0 0.0 0.00 0.00 0.00 89 1014.3
20260905043915 64 327 0.0 0.0 0.00 0.00 0.00 90 1014.2
20260905043409 64 334 0.0 0.0 0.00 0.00 0.00 91 1014.3
20260905042909 64 321 0.0 0.0 0.00 0.00 0.00 91 1014.3
20260905042404 65 319 0.0 0.0 0.00 0.00 0.00 88 1014.4
20260905041853 65 336 0.0 0.0 0.00 0.00 0.00 87 1014.3
20260905041350 65 313 0.0 0.0 0.00 0.00 0.00 89 1014.6
20260905040849 65 317 0.0 0.0 0.00 0.00 0.00 88 1014.5
20260905040348 64 325 0.0 0.0 0.00 0.00 0.00 89 1014.4
20260905035842 64 326 0.0 0.0 0.00 0.25 0.25 90 1014.4
20260905035338 64 323 0.0 0.0 0.00 0.25 0.25 91 1014.6
20260905034834 64 326 0.0 0.0 0.00 0.25 0.25 92 1014.6
20260905034330 63 330 0.0 0.0 0.00 0.25 0.25 93 1014.6
20260905033828 64 326 0.0 0.0 0.00 0.25 0.25 94 1014.6
20260905033324 64 326 0.0 0.0 0.00 0.25 0.25 93 1014.4
20260905032823 64 327 0.0 0.0 0.00 0.25 0.25 92 1014.4
20260905032319 64 327 0.0 0.0 0.00 0.25 0.25 92 1014.5
20260905031814 64 327 0.0 0.0 0.00 0.25 0.25 92 1014.5
20260905031310 64 327 0.0 0.0 0.00 0.25 0.25 92 1014.4
20260905030805 64 326 0.0 0.0 0.00 0.25 0.25 92 1014.3
20260905030301 64 329 0.0 0.0 0.00 0.25 0.25 92 1014.3
20260905025800 64 325 0.0 0.0 0.00 0.25 0.25 92 1014.5
20260905025255 65 325 0.0 0.0 0.00 0.25 0.25 91 1014.3